Satellite: HRBE Catalog number: 37855 Epoch time: 15008.57459843 Element set: 30 Inclination: 101.7089 deg RA of node: 143.2937 deg Eccentricity: 0.0204697 Arg of perigee: 179.2661 deg Mean anomaly: 180.8884 deg Mean motion: 14.93988016 rev/day Decay rate: 2.0816e-04 rev/day^2 Epoch rev: 17329 Checksum: 337
Satellite: RS-39 Catalog number: 38051 Epoch time: 14288.65876392 Element set: 41 Inclination: 051.5964 deg RA of node: 324.1908 deg Eccentricity: 0.0006422 Arg of perigee: 269.6897 deg Mean anomaly: 186.8903 deg Mean motion: 16.43533377 rev/day Decay rate: 7.0201582e-01 rev/day^2 Epoch rev: 15308 Checksum: 345
Satellite: E-STAR Catalog number: 38079 Epoch time: 15008.99556634 Element set: 184 Inclination: 069.4181 deg RA of node: 147.0100 deg Eccentricity: 0.0087650 Arg of perigee: 044.1438 deg Mean anomaly: 316.6569 deg Mean motion: 15.98203607 rev/day Decay rate: 1.135703e-02 rev/day^2 Epoch rev: 15504 Checksum: 311
Satellite: GOLIAT Catalog number: 38085 Epoch time: 15008.77081252 Element set: 705 Inclination: 069.4253 deg RA of node: 163.2256 deg Eccentricity: 0.0172092 Arg of perigee: 053.0956 deg Mean anomaly: 007.5006 deg Mean motion: 15.65958879 rev/day Decay rate: 3.78819e-03 rev/day^2 Epoch rev: 15461 Checksum: 325
Satellite: HORYU-2 Catalog number: 38340 Epoch time: 15008.51774038 Element set: 65 Inclination: 098.2935 deg RA of node: 334.6174 deg Eccentricity: 0.0010832 Arg of perigee: 241.1096 deg Mean anomaly: 118.9024 deg Mean motion: 14.73549438 rev/day Decay rate: 3.078e-05 rev/day^2 Epoch rev: 14201 Checksum: 289
Satellite: RS-40 Catalog number: 38735 Epoch time: 15008.84763666 Element set: 928 Inclination: 082.4757 deg RA of node: 159.3228 deg Eccentricity: 0.0017321 Arg of perigee: 166.8959 deg Mean anomaly: 193.2575 deg Mean motion: 12.42566302 rev/day Decay rate: 4.0e-07 rev/day^2 Epoch rev: 11112 Checksum: 314
Satellite: PROITERES Catalog number: 38756 Epoch time: 15008.85218127 Element set: 571 Inclination: 098.2218 deg RA of node: 105.5174 deg Eccentricity: 0.0013415 Arg of perigee: 088.2376 deg Mean anomaly: 272.0335 deg Mean motion: 14.75462333 rev/day Decay rate: 1.276e-05 rev/day^2 Epoch rev: 12550 Checksum: 288
Satellite: BEESAT-3 Catalog number: 39134 Epoch time: 15007.55301838 Element set: 819 Inclination: 064.8724 deg RA of node: 210.2764 deg Eccentricity: 0.0035480 Arg of perigee: 273.7330 deg Mean anomaly: 085.9735 deg Mean motion: 15.09005903 rev/day Decay rate: 7.980e-05 rev/day^2 Epoch rev: 9443 Checksum: 307
Satellite: BEESAT-2 Catalog number: 39136 Epoch time: 15008.52139173 Element set: 794 Inclination: 064.8730 deg RA of node: 208.4862 deg Eccentricity: 0.0035815 Arg of perigee: 273.9439 deg Mean anomaly: 085.7588 deg Mean motion: 15.07895515 rev/day Decay rate: 1.0231e-04 rev/day^2 Epoch rev: 9456 Checksum: 332
Satellite: LO-75 Catalog number: 39382 Epoch time: 14295.69194059 Element set: 487 Inclination: 040.4713 deg RA of node: 030.2705 deg Eccentricity: 0.0002289 Arg of perigee: 341.7175 deg Mean anomaly: 018.4586 deg Mean motion: 16.19795749 rev/day Decay rate: 7.301741e-02 rev/day^2 Epoch rev: 47082 Checksum: 345
Satellite: ZACUBE-1 Catalog number: 39417 Epoch time: 15008.44085851 Element set: 509 Inclination: 097.7514 deg RA of node: 076.8499 deg Eccentricity: 0.0059933 Arg of perigee: 297.0066 deg Mean anomaly: 062.5034 deg Mean motion: 14.79028964 rev/day Decay rate: 3.040e-05 rev/day^2 Epoch rev: 6101 Checksum: 317
Satellite: TRITON-1 Catalog number: 39427 Epoch time: 15008.47093269 Element set: 361 Inclination: 097.7386 deg RA of node: 068.4787 deg Eccentricity: 0.0115644 Arg of perigee: 317.1208 deg Mean anomaly: 042.1022 deg Mean motion: 14.66115566 rev/day Decay rate: 1.733e-05 rev/day^2 Epoch rev: 6045 Checksum: 303
Satellite: DELFIN3XT Catalog number: 39428 Epoch time: 15008.45662629 Element set: 364 Inclination: 097.7378 deg RA of node: 067.1063 deg Eccentricity: 0.0125141 Arg of perigee: 320.9958 deg Mean anomaly: 038.2269 deg Mean motion: 14.64484617 rev/day Decay rate: 4.292e-05 rev/day^2 Epoch rev: 6035 Checksum: 324
Satellite: GOMX-1 Catalog number: 39430 Epoch time: 15008.63038203 Element set: 145 Inclination: 097.7297 deg RA of node: 063.1216 deg Eccentricity: 0.0154072 Arg of perigee: 332.4983 deg Mean anomaly: 026.8143 deg Mean motion: 14.57531834 rev/day Decay rate: 1.542e-05 rev/day^2 Epoch rev: 6013 Checksum: 276
Satellite: MO-76 Catalog number: 39436 Epoch time: 15008.16985366 Element set: 461 Inclination: 097.7605 deg RA of node: 084.3142 deg Eccentricity: 0.0021960 Arg of perigee: 288.5337 deg Mean anomaly: 071.3500 deg Mean motion: 14.98214905 rev/day Decay rate: 2.9435e-04 rev/day^2 Epoch rev: 6146 Checksum: 324
Satellite: LO-74 Catalog number: 39440 Epoch time: 15007.61495400 Element set: 355 Inclination: 097.7467 deg RA of node: 072.7326 deg Eccentricity: 0.0081794 Arg of perigee: 306.8705 deg Mean anomaly: 052.5024 deg Mean motion: 14.73893564 rev/day Decay rate: 2.149e-05 rev/day^2 Epoch rev: 6067 Checksum: 323
Satellite: PUCPSAT-1 Catalog number: 39442 Epoch time: 15008.45427484 Element set: 357 Inclination: 097.7580 deg RA of node: 082.1061 deg Eccentricity: 0.0032527 Arg of perigee: 290.6716 deg Mean anomaly: 069.1014 deg Mean motion: 14.87504911 rev/day Decay rate: 5.281e-05 rev/day^2 Epoch rev: 6011 Checksum: 288
Satellite: SHINAISAT Catalog number: 39572 Epoch time: 14328.13084988 Element set: 447 Inclination: 064.9728 deg RA of node: 197.0096 deg Eccentricity: 0.0013534 Arg of perigee: 259.7861 deg Mean anomaly: 100.1802 deg Mean motion: 16.45181032 rev/day Decay rate: 2.8848087e-01 rev/day^2 Epoch rev: 4240 Checksum: 324
Satellite: TEIKYOSAT Catalog number: 39576 Epoch time: 14297.85867254 Element set: 437 Inclination: 064.9818 deg RA of node: 300.5833 deg Eccentricity: 0.0008491 Arg of perigee: 317.3597 deg Mean anomaly: 044.3862 deg Mean motion: 16.45008906 rev/day Decay rate: 9.345816e-02 rev/day^2 Epoch rev: 3769 Checksum: 359
Satellite: CO-77 Catalog number: 39577 Epoch time: 14244.78324653 Element set: 379 Inclination: 064.9920 deg RA of node: 123.7668 deg Eccentricity: 0.0014904 Arg of perigee: 269.7208 deg Mean anomaly: 091.1897 deg Mean motion: 16.43552757 rev/day Decay rate: 1.0543803e-01 rev/day^2 Epoch rev: 2938 Checksum: 363
Satellite: SPROUT Catalog number: 39770 Epoch time: 15007.79549251 Element set: 245 Inclination: 097.8730 deg RA of node: 106.8981 deg Eccentricity: 0.0010183 Arg of perigee: 012.4966 deg Mean anomaly: 347.6472 deg Mean motion: 14.83292246 rev/day Decay rate: 1.700e-05 rev/day^2 Epoch rev: 3385 Checksum: 309
Satellite: POPSAT-HIP1 Catalog number: 40028 Epoch time: 15008.80243238 Element set: 619 Inclination: 097.9688 deg RA of node: 268.8270 deg Eccentricity: 0.0014278 Arg of perigee: 349.1664 deg Mean anomaly: 010.9283 deg Mean motion: 14.86163501 rev/day Decay rate: 4.555e-05 rev/day^2 Epoch rev: 3010 Checksum: 300
Satellite: EO-80 Catalog number: 40032 Epoch time: 15008.76766310 Element set: 601 Inclination: 097.9634 deg RA of node: 268.6170 deg Eccentricity: 0.0012616 Arg of perigee: 345.5578 deg Mean anomaly: 014.5278 deg Mean motion: 14.85897027 rev/day Decay rate: 3.271e-05 rev/day^2 Epoch rev: 3010 Checksum: 299
Satellite: VELOX-1 Catalog number: 40057 Epoch time: 15008.83145541 Element set: 611 Inclination: 098.2329 deg RA of node: 084.3114 deg Eccentricity: 0.0011624 Arg of perigee: 034.1195 deg Mean anomaly: 326.0739 deg Mean motion: 14.74996803 rev/day Decay rate: 3.406e-05 rev/day^2 Epoch rev: 2838 Checksum: 285
Satellite: DAURIA DX 1 Catalog number: 40071 Epoch time: 15008.86472095 Element set: 581 Inclination: 098.3775 deg RA of node: 073.6112 deg Eccentricity: 0.0009201 Arg of perigee: 038.5643 deg Mean anomaly: 321.6195 deg Mean motion: 14.79992215 rev/day Decay rate: 1.693e-05 rev/day^2 Epoch rev: 2722 Checksum: 298
Satellite: UKUBE-1 Catalog number: 40074 Epoch time: 15008.86957916 Element set: 582 Inclination: 098.3787 deg RA of node: 073.9525 deg Eccentricity: 0.0005451 Arg of perigee: 050.6906 deg Mean anomaly: 309.4765 deg Mean motion: 14.81358407 rev/day Decay rate: 3.700e-05 rev/day^2 Epoch rev: 2724 Checksum: 319
Satellite: CHASQUI-1 Catalog number: 40117 Epoch time: 15008.78931839 Element set: 446 Inclination: 051.6319 deg RA of node: 144.7955 deg Eccentricity: 0.0008173 Arg of perigee: 310.1871 deg Mean anomaly: 049.8380 deg Mean motion: 16.03648892 rev/day Decay rate: 1.188311e-02 rev/day^2 Epoch rev: 2240 Checksum: 306
Satellite: HODOYOSHI-1 Catalog number: 40299 Epoch time: 15008.88495095 Element set: 197 Inclination: 097.4702 deg RA of node: 092.4786 deg Eccentricity: 0.0012785 Arg of perigee: 334.8724 deg Mean anomaly: 117.0731 deg Mean motion: 15.17766561 rev/day Decay rate: 5.495e-05 rev/day^2 Epoch rev: 963 Checksum: 338
Satellite: CHUBUSAT-1 Catalog number: 40300 Epoch time: 15008.91332760 Element set: 197 Inclination: 097.4683 deg RA of node: 092.2867 deg Eccentricity: 0.0022494 Arg of perigee: 330.5458 deg Mean anomaly: 156.2747 deg Mean motion: 15.15734437 rev/day Decay rate: 7.535e-05 rev/day^2 Epoch rev: 963 Checksum: 309
Satellite: QSAT-EOS Catalog number: 40301 Epoch time: 15008.87855507 Element set: 213 Inclination: 097.4636 deg RA of node: 091.9971 deg Eccentricity: 0.0033827 Arg of perigee: 329.3279 deg Mean anomaly: 138.7907 deg Mean motion: 15.13638084 rev/day Decay rate: 1.1632e-04 rev/day^2 Epoch rev: 961 Checksum: 313
Satellite: TSUBAME Catalog number: 40302 Epoch time: 15008.91437378 Element set: 206 Inclination: 097.4618 deg RA of node: 091.7777 deg Eccentricity: 0.0043748 Arg of perigee: 328.9893 deg Mean anomaly: 142.8509 deg Mean motion: 15.10996269 rev/day Decay rate: 8.358e-05 rev/day^2 Epoch rev: 959 Checksum: 346
/EX